When you browse on this site, cookies collect data to enhance your experience and personalize the content and advertising you see.
Visit our Privacy Policy to learn more. By continuing to use the site, you agree to this use of cookies and data.
  • In Deutschland
  • Länderverzeichnis
  • Für 7 Tage
  • Wassertemperatur
  • Satellitenkarten
  • Wetterkarte
  • Widgets
  • user-avatar
    Anmelden

    Stündliche Wetter Polotsk

    Heute, 17 Juni, Montag

    Zeit Temperatur Niederschläge Wind Luftdruck Luftfeuchtigkeit
    00:00 +20°C° 0.1 mm 1 m/S 747 mmHg 79%
    01:00 +19°C° 0.1 mm 2 m/S 747 mmHg 80%
    02:00 +19°C° 0.1 mm 2 m/S 747 mmHg 81%
    03:00 +18°C° 0 mm 2 m/S 747 mmHg 84%
    04:00 +18°C° 0 mm 2 m/S 747 mmHg 87%
    05:00 +18°C° 0 mm 2 m/S 747 mmHg 90%
    06:00 +19°C° 0 mm 2 m/S 747 mmHg 86%
    07:00 +21°C° 0 mm 2 m/S 747 mmHg 83%
    08:00 +23°C° 0 mm 2 m/S 747 mmHg 79%
    09:00 +24°C° 0.8 mm 2 m/S 747 mmHg 81%
    10:00 +24°C° 0.8 mm 3 m/S 747 mmHg 82%
    11:00 +24°C° 0.8 mm 3 m/S 747 mmHg 84%
    12:00 +24°C° 0.5 mm 3 m/S 747 mmHg 81%
    13:00 +23°C° 0.5 mm 4 m/S 747 mmHg 79%
    14:00 +23°C° 0.5 mm 4 m/S 747 mmHg 76%
    15:00 +23°C° 0.1 mm 4 m/S 747 mmHg 76%
    16:00 +22°C° 0.1 mm 4 m/S 747 mmHg 76%
    17:00 +22°C° 0.1 mm 4 m/S 747 mmHg 76%
    18:00 +21°C° 0 mm 4 m/S 747 mmHg 81%
    19:00 +20°C° 0 mm 3 m/S 747 mmHg 85%
    20:00 +19°C° 0 mm 3 m/S 747 mmHg 89%
    21:00 +18°C° 0.1 mm 3 m/S 747 mmHg 91%
    22:00 +18°C° 0.1 mm 4 m/S 748 mmHg 92%
    23:00 +17°C° 0.1 mm 4 m/S 748 mmHg 94%

    Morgen, 18 Juni, Dienstag

    Zeit Temperatur Niederschläge Wind Luftdruck Luftfeuchtigkeit
    00:00 +17°C° 0 mm 4 m/S 748 mmHg 93%
    01:00 +16°C° 0 mm 3 m/S 748 mmHg 93%
    02:00 +16°C° 0 mm 3 m/S 749 mmHg 92%
    03:00 +14°C° 0 mm 3 m/S 749 mmHg 92%
    04:00 +14°C° 0 mm 3 m/S 749 mmHg 92%
    05:00 +14°C° 0 mm 3 m/S 749 mmHg 92%
    06:00 +16°C° 0 mm 3 m/S 750 mmHg 85%
    07:00 +17°C° 0 mm 3 m/S 750 mmHg 77%
    08:00 +18°C° 0 mm 3 m/S 750 mmHg 69%
    09:00 +19°C° 0 mm 3 m/S 750 mmHg 63%
    10:00 +21°C° 0 mm 3 m/S 750 mmHg 57%
    11:00 +22°C° 0 mm 3 m/S 751 mmHg 50%
    12:00 +24°C° 0 mm 3 m/S 750 mmHg 49%
    13:00 +24°C° 0 mm 3 m/S 750 mmHg 48%
    14:00 +25°C° 0 mm 3 m/S 750 mmHg 47%
    15:00 +25°C° 0 mm 3 m/S 750 mmHg 49%
    16:00 +25°C° 0 mm 3 m/S 750 mmHg 51%
    17:00 +25°C° 0 mm 3 m/S 750 mmHg 54%
    18:00 +23°C° 0 mm 2 m/S 750 mmHg 61%
    19:00 +21°C° 0 mm 2 m/S 750 mmHg 68%
    20:00 +20°C° 0 mm 1 m/S 749 mmHg 76%
    21:00 +18°C° 0 mm 2 m/S 750 mmHg 78%
    22:00 +17°C° 0 mm 2 m/S 750 mmHg 81%
    23:00 +16°C° 0 mm 2 m/S 750 mmHg 83%

    übermorgen, 19 Juni, Mittwoch

    Zeit Temperatur Niederschläge Wind Luftdruck Luftfeuchtigkeit
    00:00 +16°C° 0 mm 1 m/S 750 mmHg 84%
    01:00 +15°C° 0 mm 1 m/S 750 mmHg 86%
    02:00 +14°C° 0 mm 1 m/S 750 mmHg 87%
    03:00 +15°C° 0 mm 1 m/S 750 mmHg 86%
    04:00 +15°C° 0 mm 1 m/S 750 mmHg 85%
    05:00 +15°C° 0 mm 1 m/S 750 mmHg 84%
    06:00 +18°C° 0 mm 1 m/S 750 mmHg 78%
    07:00 +20°C° 0 mm 1 m/S 750 mmHg 72%
    08:00 +22°C° 0 mm 1 m/S 750 mmHg 66%
    09:00 +22°C° 0 mm 0 m/S 751 mmHg 61%
    10:00 +23°C° 0 mm 0 m/S 751 mmHg 57%
    11:00 +25°C° 0 mm 0 m/S 751 mmHg 52%
    12:00 +27°C° 0 mm 1 m/S 750 mmHg 51%
    13:00 +27°C° 0 mm 1 m/S 750 mmHg 49%
    14:00 +27°C° 0 mm 2 m/S 750 mmHg 48%
    15:00 +27°C° 0 mm 2 m/S 750 mmHg 51%
    16:00 +27°C° 0 mm 2 m/S 749 mmHg 54%
    17:00 +26°C° 0 mm 3 m/S 749 mmHg 58%
    18:00 +25°C° 0 mm 2 m/S 749 mmHg 65%
    19:00 +23°C° 0 mm 2 m/S 749 mmHg 72%
    20:00 +21°C° 0 mm 2 m/S 749 mmHg 79%
    21:00 +20°C° 0 mm 2 m/S 749 mmHg 81%
    22:00 +19°C° 0 mm 2 m/S 749 mmHg 83%
    23:00 +18°C° 0 mm 2 m/S 749 mmHg 84%

    20 Juni, Donnerstag

    Zeit Temperatur Niederschläge Wind Luftdruck Luftfeuchtigkeit
    00:00 +17°C° 0 mm 2 m/S 749 mmHg 85%
    01:00 +17°C° 0 mm 2 m/S 749 mmHg 86%
    02:00 +16°C° 0 mm 2 m/S 748 mmHg 87%
    03:00 +17°C° 0 mm 2 m/S 748 mmHg 86%
    04:00 +17°C° 0 mm 2 m/S 749 mmHg 84%
    05:00 +18°C° 0 mm 3 m/S 749 mmHg 83%
    06:00 +19°C° 0 mm 3 m/S 748 mmHg 79%
    07:00 +20°C° 0 mm 3 m/S 748 mmHg 76%
    08:00 +21°C° 0 mm 4 m/S 748 mmHg 73%
    09:00 +22°C° 0.2 mm 4 m/S 748 mmHg 75%
    10:00 +22°C° 0.2 mm 4 m/S 748 mmHg 77%
    11:00 +23°C° 0.2 mm 4 m/S 748 mmHg 79%
    12:00 +22°C° 0.2 mm 4 m/S 748 mmHg 80%
    13:00 +22°C° 0.2 mm 4 m/S 748 mmHg 81%
    14:00 +22°C° 0.2 mm 4 m/S 747 mmHg 82%
    15:00 +23°C° 0 mm 4 m/S 747 mmHg 77%
    16:00 +25°C° 0 mm 4 m/S 747 mmHg 73%
    17:00 +26°C° 0 mm 5 m/S 747 mmHg 68%
    18:00 +25°C° 0.1 mm 4 m/S 747 mmHg 74%
    19:00 +23°C° 0.1 mm 4 m/S 747 mmHg 79%
    20:00 +22°C° 0.1 mm 3 m/S 747 mmHg 84%
    21:00 +21°C° 0 mm 3 m/S 747 mmHg 87%
    22:00 +20°C° 0 mm 3 m/S 747 mmHg 90%
    23:00 +19°C° 0 mm 3 m/S 747 mmHg 92%

    21 Juni, Freitag

    Zeit Temperatur Niederschläge Wind Luftdruck Luftfeuchtigkeit
    00:00 +19°C° 0 mm 3 m/S 747 mmHg 93%
    01:00 +19°C° 0 mm 2 m/S 747 mmHg 95%
    02:00 +18°C° 0 mm 2 m/S 747 mmHg 96%
    03:00 +18°C° 0 mm 2 m/S 747 mmHg 95%
    04:00 +19°C° 0 mm 2 m/S 748 mmHg 95%
    05:00 +19°C° 0 mm 2 m/S 748 mmHg 94%
    06:00 +20°C° 0 mm 2 m/S 748 mmHg 88%
    07:00 +23°C° 0 mm 1 m/S 748 mmHg 83%
    08:00 +25°C° 0 mm 1 m/S 748 mmHg 78%
    09:00 +26°C° 0.3 mm 2 m/S 748 mmHg 74%
    10:00 +27°C° 0.3 mm 2 m/S 748 mmHg 69%
    11:00 +28°C° 0.3 mm 2 m/S 748 mmHg 65%
    12:00 +27°C° 0.9 mm 2 m/S 748 mmHg 72%
    13:00 +26°C° 0.9 mm 2 m/S 748 mmHg 78%
    14:00 +25°C° 0.9 mm 3 m/S 748 mmHg 84%
    15:00 +25°C° 0.7 mm 2 m/S 748 mmHg 84%
    16:00 +26°C° 0.7 mm 2 m/S 747 mmHg 84%
    17:00 +26°C° 0.7 mm 1 m/S 747 mmHg 84%
    18:00 +25°C° 0.5 mm 1 m/S 747 mmHg 85%
    19:00 +24°C° 0.5 mm 1 m/S 747 mmHg 87%
    20:00 +23°C° 0.5 mm 1 m/S 747 mmHg 88%
    21:00 +23°C° 0 mm 1 m/S 747 mmHg 90%
    22:00 +22°C° 0 mm 1 m/S 747 mmHg 92%
    23:00 +21°C° 0 mm 1 m/S 747 mmHg 93%

    22 Juni, Samstag

    Zeit Temperatur Niederschläge Wind Luftdruck Luftfeuchtigkeit
    00:00 +20°C° 0 mm 2 m/S 747 mmHg 94%
    01:00 +20°C° 0 mm 2 m/S 747 mmHg 94%
    02:00 +20°C° 0 mm 2 m/S 747 mmHg 94%
    03:00 +20°C° 0.1 mm 2 m/S 747 mmHg 95%
    04:00 +20°C° 0.1 mm 2 m/S 747 mmHg 95%
    05:00 +20°C° 0.1 mm 2 m/S 747 mmHg 95%
    06:00 +21°C° 0.3 mm 2 m/S 747 mmHg 92%
    07:00 +23°C° 0.3 mm 2 m/S 747 mmHg 88%
    08:00 +25°C° 0.3 mm 2 m/S 748 mmHg 85%
    09:00 +26°C° 1.8 mm 2 m/S 748 mmHg 83%
    10:00 +27°C° 1.8 mm 3 m/S 747 mmHg 82%
    11:00 +27°C° 1.8 mm 3 m/S 747 mmHg 80%
    12:00 +28°C° 1.6 mm 3 m/S 747 mmHg 78%
    13:00 +28°C° 1.6 mm 3 m/S 747 mmHg 76%
    14:00 +29°C° 1.6 mm 3 m/S 747 mmHg 74%
    15:00 +28°C° 0.6 mm 3 m/S 747 mmHg 75%
    16:00 +28°C° 0.6 mm 3 m/S 747 mmHg 76%
    17:00 +28°C° 0.6 mm 3 m/S 747 mmHg 77%
    18:00 +26°C° 0.5 mm 3 m/S 747 mmHg 81%
    19:00 +25°C° 0.5 mm 2 m/S 747 mmHg 85%
    20:00 +24°C° 0.5 mm 2 m/S 747 mmHg 90%
    21:00 +23°C° 0.1 mm 2 m/S 747 mmHg 91%
    22:00 +21°C° 0.1 mm 2 m/S 747 mmHg 92%
    23:00 +20°C° 0.1 mm 2 m/S 747 mmHg 93%
    Mehr zeigen